EW7070 Weather Reports


time (UTC)temp
C
wind
direction
speed
KPH
gust
KPH
rain 1hr
cm
rain 24hr
cm
rain mn
cm
humidity
%
barometer
mb
20260904213910 16 243 0.0 0.0 0.00 0.00 0.00 76 1014.3
20260904213608 16 243 0.0 0.0 0.00 0.00 0.00 77 1014.2
20260904212832 16 243 0.0 0.0 0.00 0.00 0.00 76 1014.3
20260904212312 17 243 0.0 0.0 0.00 0.00 0.00 74 1014.2
20260904211810 17 243 0.0 0.0 0.00 0.00 0.00 74 1014.2
20260904211308 17 243 0.0 0.0 0.00 0.00 0.00 74 1014.3
20260904210808 18 243 0.0 1.6 0.00 0.00 0.00 71 1014.1
20260904210302 18 243 1.6 3.2 0.00 0.00 0.00 72 1014.0
20260904205800 18 243 1.6 3.2 0.00 0.00 0.00 71 1014.1
20260904205231 18 243 1.6 3.2 0.00 0.00 0.00 70 1014.0
20260904204703 19 243 1.6 3.2 0.00 0.00 0.00 68 1014.0
20260904204201 19 243 1.6 3.2 0.00 0.00 0.00 64 1013.9
20260904203654 20 239 1.6 4.8 0.00 0.00 0.00 60 1013.8
20260904203152 20 226 1.6 4.8 0.00 0.00 0.00 58 1013.8
20260904202650 20 241 1.6 6.4 0.00 0.00 0.00 57 1013.8
20260904202122 21 235 1.6 6.4 0.00 0.00 0.00 55 1013.7
20260904201820 21 250 1.6 4.8 0.00 0.00 0.00 54 1013.9
20260904201048 21 238 1.6 4.8 0.00 0.00 0.00 52 1013.8
20260904200533 21 254 1.6 6.4 0.00 0.00 0.00 54 1013.6
20260904200036 21 270 1.6 6.4 0.00 0.00 0.00 55 1013.7
20260904195518 21 267 3.2 6.4 0.00 0.00 0.00 51 1013.7
20260904195248 21 231 1.6 6.4 0.00 0.00 0.00 53 1013.6
20260904194519 21 259 0.0 3.2 0.00 0.00 0.00 53 1013.6
20260904193954 21 141 1.6 6.4 0.00 0.00 0.00 53 1013.6
20260904193427 21 150 1.6 6.4 0.00 0.00 0.00 51 1013.5
20260904192915 21 182 1.6 6.4 0.00 0.00 0.00 52 1013.6
20260904192351 21 344 1.6 4.8 0.00 0.00 0.00 54 1013.5
20260904191828 21 339 1.6 4.8 0.00 0.00 0.00 54 1013.4
20260904191324 20 270 1.6 4.8 0.00 0.00 0.00 55 1013.3
20260904190826 20 115 1.6 6.4 0.00 0.00 0.00 53 1013.4
20260904190300 20 199 1.6 6.4 0.00 0.00 0.00 53 1013.3
20260904185734 20 145 0.0 6.4 0.00 0.00 0.00 56 1013.1
20260904185233 20 158 0.0 0.0 0.00 0.00 0.00 56 1013.5
20260904184733 20 43 0.0 0.0 0.00 0.00 0.00 57 1013.4
20260904184232 20 43 0.0 0.0 0.00 0.00 0.00 56 1013.4
20260904183731 20 40 0.0 0.0 0.00 0.00 0.00 57 1013.4
20260904183228 20 210 0.0 3.2 0.00 0.00 0.00 56 1013.3
20260904182725 20 222 1.6 3.2 0.00 0.00 0.00 56 1013.5
20260904182700 19 89 1.6 3.2 0.00 0.00 0.00 58 1013.5
20260904181632 19 153 1.6 6.4 0.00 0.00 0.00 57 1013.7
20260904181402 19 187 3.2 6.4 0.00 0.00 0.00 56 1013.7
20260904180624 19 168 3.2 6.4 0.00 0.00 0.00 56 1013.7
20260904180121 20 217 3.2 6.4 0.00 0.00 0.00 61 1013.9
20260904175553 20 253 3.2 11.3 0.00 0.00 0.00 60 1013.8
20260904175051 20 256 3.2 11.3 0.00 0.00 0.00 59 1013.9
20260904174544 20 262 1.6 8.0 0.00 0.00 0.00 59 1013.9
20260904174040 20 22 1.6 4.8 0.00 0.00 0.00 59 1013.9
20260904173530 19 216 1.6 8.0 0.00 0.00 0.00 59 1013.8
20260904173300 19 164 1.6 8.0 0.00 0.00 0.00 59 1013.8
20260904172526 19 274 3.2 8.0 0.00 0.00 0.00 59 1014.0
20260904172014 19 138 3.2 8.0 0.00 0.00 0.00 57 1013.9
20260904171509 19 250 3.2 8.0 0.00 0.00 0.00 58 1013.8
20260904170959 20 223 3.2 4.8 0.00 0.00 0.00 60 1013.9
20260904170726 20 237 3.2 11.3 0.00 0.00 0.00 57 1014.1
20260904165953 20 162 3.2 11.3 0.00 0.00 0.00 57 1014.2
20260904165434 20 187 1.6 8.0 0.00 0.00 0.00 58 1014.4
20260904165425 20 280 1.6 8.0 0.00 0.00 0.00 59 1014.3
20260904165036 20 351 3.2 6.4 0.00 0.00 0.00 59 1014.5
20260904163924 19 269 3.2 8.0 0.00 0.00 0.00 58 1014.5
20260904163427 20 195 3.2 6.4 0.00 0.00 0.00 57 1014.5
20260904162900 20 246 3.2 9.7 0.00 0.00 0.00 58 1014.5
20260904162358 20 235 3.2 9.7 0.00 0.00 0.00 57 1014.6
20260904161846 19 295 3.2 9.7 0.00 0.00 0.00 57 1014.5
20260904161343 20 253 4.8 9.7 0.00 0.00 0.00 56 1014.6
20260904161319 20 255 4.8 9.7 0.00 0.00 0.00 57 1014.6
20260904160249 20 151 3.2 9.7 0.00 0.00 0.00 55 1014.6
20260904155724 20 195 3.2 9.7 0.00 0.00 0.00 54 1014.7
20260904155155 20 213 1.6 8.0 0.00 0.00 0.00 55 1014.7
20260904154647 20 224 1.6 6.4 0.00 0.00 0.00 59 1014.6
20260904154118 20 113 3.2 11.3 0.00 0.00 0.00 58 1014.6
20260904153616 20 237 4.8 14.5 0.00 0.00 0.00 56 1014.7
20260904153104 20 278 4.8 14.5 0.00 0.00 0.00 58 1014.7
20260904152604 20 236 4.8 12.9 0.00 0.00 0.00 58 1014.8
20260904152059 20 216 4.8 12.9 0.00 0.00 0.00 57 1014.9
20260904151555 20 268 4.8 14.5 0.00 0.00 0.00 56 1014.9
20260904151044 19 240 4.8 14.5 0.00 0.00 0.00 57 1015.0
20260904150539 19 206 4.8 9.7 0.00 0.00 0.00 59 1015.0
20260904150040 19 297 4.8 9.7 0.00 0.00 0.00 59 1015.0
20260904145533 19 280 4.8 12.9 0.00 0.00 0.00 59 1015.0
20260904145033 19 289 4.8 12.9 0.00 0.00 0.00 59 1015.1
20260904144531 19 301 3.2 11.3 0.00 0.00 0.00 58 1015.1
20260904144033 19 280 3.2 11.3 0.00 0.00 0.00 58 1015.0
20260904143509 19 264 3.2 14.5 0.00 0.00 0.00 57 1015.2
20260904143224 19 201 1.6 12.9 0.00 0.00 0.00 60 1015.1
20260904142722 19 320 1.6 8.0 0.00 0.00 0.00 60 1015.1
20260904141951 19 294 1.6 6.4 0.00 0.00 0.00 62 1015.2
20260904141448 19 262 3.2 8.0 0.00 0.00 0.00 57 1015.2
20260904140918 19 238 4.8 8.0 0.00 0.00 0.00 60 1015.4
20260904140907 19 159 3.2 8.0 0.00 0.00 0.00 59 1015.5
20260904135844 19 307 3.2 9.7 0.00 0.00 0.00 59 1015.5
20260904135328 19 253 3.2 9.7 0.00 0.00 0.00 59 1015.7
20260904135058 19 144 3.2 9.7 0.00 0.00 0.00 58 1015.9
20260904134300 19 125 3.2 9.7 0.00 0.00 0.00 56 1015.9
20260904133757 19 29 3.2 9.7 0.00 0.00 0.00 57 1015.9
20260904133515 18 148 3.2 8.0 0.00 0.00 0.00 65 1016.0
20260904133015 18 133 3.2 8.0 0.00 0.00 0.00 59 1016.1
20260904132223 18 151 3.2 14.5 0.00 0.00 0.00 60 1016.1
20260904131722 18 126 3.2 14.5 0.00 0.00 0.00 60 1016.1
20260904131438 18 113 3.2 11.3 0.00 0.00 0.00 63 1016.1
20260904130649 18 187 3.2 11.3 0.00 0.00 0.00 63 1016.3
20260904130148 18 126 4.8 12.9 0.00 0.00 0.00 67 1016.3
20260904125621 18 97 4.8 12.9 0.00 0.00 0.00 71 1016.5
20260904125556 17 93 3.2 9.7 0.00 0.00 0.00 69 1016.6
20260904124532 17 177 3.2 6.4 0.00 0.00 0.00 71 1016.7
20260904124024 17 222 1.6 12.9 0.00 0.00 0.00 72 1016.6
20260904123523 17 177 3.2 12.9 0.00 0.00 0.00 82 1016.7
20260904123252 17 115 4.8 12.9 0.00 0.00 0.00 80 1016.6
20260904122519 17 137 4.8 12.9 0.00 0.00 0.00 82 1016.7
20260904122015 16 85 3.2 9.7 0.00 0.00 0.00 85 1016.8
20260904121450 16 60 1.6 6.4 0.00 0.00 0.00 87 1016.7
20260904120931 16 128 4.8 6.4 0.00 0.00 0.00 88 1016.5
20260904120923 16 39 3.2 6.4 0.00 0.00 0.00 88 1016.7
20260904120127 15 98 3.2 9.7 0.00 0.00 0.00 88 1016.4
20260904115330 15 110 4.8 9.7 0.00 0.00 0.00 88 1016.5
20260904114819 15 102 3.2 8.0 0.00 0.00 0.00 89 1016.4
20260904114319 15 120 1.6 4.8 0.00 0.00 0.00 92 1016.5
20260904114027 15 103 1.6 4.8 0.00 0.00 0.00 94 1016.5
20260904113247 15 150 1.6 4.8 0.00 0.00 0.00 95 1016.5
20260904112736 15 127 1.6 4.8 0.00 0.00 0.00 96 1016.3
20260904112208 15 114 1.6 4.8 0.00 0.00 0.00 97 1016.3
20260904111707 14 120 1.6 4.8 0.00 0.00 0.00 98 1016.3
20260904111135 14 158 0.0 3.2 0.00 0.00 0.00 98 1016.5
20260904110634 14 303 0.0 1.6 0.00 0.00 0.00 98 1016.4
20260904110110 13 303 0.0 0.0 0.00 0.00 0.00 98 1016.4
20260904105600 13 303 0.0 0.0 0.00 0.00 0.00 97 1016.4
20260904105036 12 303 0.0 1.6 0.00 0.00 0.00 97 1016.5
20260904104742 12 303 0.0 1.6 0.00 0.00 0.00 96 1016.5
20260904103943 12 303 0.0 0.0 0.00 0.00 0.00 96 1016.4
20260904103441 12 303 0.0 0.0 0.00 0.00 0.00 96 1016.5
20260904102939 12 303 0.0 0.0 0.00 0.00 0.00 95 1016.3
20260904102430 12 303 0.0 0.0 0.00 0.00 0.00 95 1016.3
20260904101918 12 303 0.0 0.0 0.00 0.00 0.00 95 1016.4
20260904101419 12 303 0.0 0.0 0.00 0.00 0.00 95 1016.3
20260904100928 12 303 0.0 0.0 0.00 0.00 0.00 94 1016.2
20260904100919 12 303 0.0 0.0 0.00 0.00 0.00 94 1016.3
20260904095909 12 303 0.0 0.0 0.00 0.00 0.00 94 1016.0
20260904095407 12 303 0.0 0.0 0.00 0.00 0.00 94 1016.0
20260904094906 12 303 0.0 0.0 0.00 0.00 0.00 93 1016.0
20260904094404 12 303 0.0 0.0 0.00 0.00 0.00 93 1015.8
20260904094129 12 303 0.0 0.0 0.00 0.00 0.00 93 1015.7
20260904093559 12 303 0.0 0.0 0.00 0.00 0.00 93 1015.7
20260904092825 13 303 0.0 0.0 0.00 0.00 0.00 93 1015.7
20260904092529 13 303 0.0 0.0 0.00 0.00 0.00 92 1015.3
20260904091738 13 303 0.0 0.0 0.00 0.00 0.00 92 1015.3
20260904091237 13 303 0.0 0.0 0.00 0.00 0.00 92 1015.3
20260904090942 13 303 0.0 1.6 0.00 0.00 0.00 92 1015.2
20260904090147 13 303 1.6 3.2 0.00 0.00 0.00 92 1015.3
20260904085646 14 303 1.6 3.2 0.00 0.00 0.00 92 1015.2
20260904085144 14 262 0.0 1.6 0.00 0.00 0.00 93 1015.0
20260904084621 14 262 0.0 1.6 0.00 0.00 0.00 92 1014.9
20260904084121 14 262 0.0 1.6 0.00 0.00 0.00 92 1015.0
20260904083853 15 262 0.0 1.6 0.00 0.00 0.00 92 1015.0
20260904083341 15 262 0.0 1.6 0.00 0.00 0.00 93 1015.0
20260904082609 15 262 0.0 1.6 0.00 0.00 0.00 92 1015.1
20260904082106 15 262 0.0 1.6 0.00 0.00 0.00 93 1014.8
20260904081605 15 262 0.0 1.6 0.00 0.00 0.00 92 1014.9
20260904081039 15 262 0.0 1.6 0.00 0.00 0.00 92 1014.8
20260904080517 15 262 0.0 1.6 0.00 0.00 0.00 92 1014.7
20260904080015 15 262 0.0 1.6 0.00 0.00 0.00 92 1014.8
20260904075746 15 262 0.0 3.2 0.00 0.00 0.00 93 1014.8
20260904075015 15 262 0.0 3.2 0.00 0.00 0.00 92 1014.8
20260904074512 15 256 0.0 3.2 0.00 0.00 0.00 92 1014.6
20260904074010 15 217 0.0 3.2 0.00 0.00 0.00 92 1014.4
20260904073510 15 217 0.0 0.0 0.00 0.00 0.00 93 1014.6
20260904072945 15 177 0.0 1.6 0.00 0.00 0.00 92 1014.6
20260904072648 15 177 0.0 1.6 0.00 0.00 0.00 92 1014.6
20260904071913 15 266 1.6 3.2 0.00 0.00 0.00 92 1014.4
20260904071409 15 266 1.6 3.2 0.00 0.00 0.00 92 1014.5
20260904070904 15 220 1.6 4.8 0.00 0.00 0.00 92 1014.4
20260904070400 15 258 1.6 4.8 0.00 0.00 0.00 92 1014.2
20260904065837 15 263 3.2 4.8 0.00 0.00 0.00 92 1014.3
20260904065312 15 267 1.6 4.8 0.00 0.00 0.00 92 1014.2
20260904064744 15 257 1.6 4.8 0.00 0.00 0.00 92 1014.0
20260904064511 15 239 1.6 3.2 0.00 0.00 0.00 91 1013.8
20260904063738 15 233 0.0 3.2 0.00 0.00 0.00 91 1013.7
20260904063211 15 233 0.0 3.2 0.00 0.00 0.00 91 1013.6
20260904062704 15 234 0.0 3.2 0.00 0.00 0.00 91 1013.7
20260904062140 15 232 1.6 3.2 0.00 0.00 0.00 91 1013.7
20260904061615 15 138 0.0 3.2 0.00 0.00 0.00 91 1013.7
20260904061345 15 41 0.0 3.2 0.00 0.00 0.00 91 1013.6
20260904060609 15 253 0.0 6.4 0.00 0.00 0.00 91 1013.7
20260904060107 15 253 1.6 6.4 0.00 0.00 0.00 91 1013.7
20260904055606 15 243 3.2 9.7 0.00 0.00 0.00 91 1013.8
20260904055107 15 217 3.2 9.7 0.00 0.00 0.00 91 1013.8
20260904054542 15 242 3.2 6.4 0.00 0.00 0.00 91 1013.6
20260904054043 15 263 3.2 6.4 0.00 0.00 0.00 91 1013.6
20260904053541 15 231 3.2 6.4 0.00 0.00 0.00 91 1013.3
20260904053314 15 252 3.2 8.0 0.00 0.00 0.00 91 1013.4
20260904052524 15 246 1.6 8.0 0.00 0.00 0.00 91 1013.3
20260904052025 15 217 1.6 4.8 0.00 0.00 0.00 91 1013.2
20260904051519 15 246 1.6 4.8 0.00 0.00 0.00 91 1013.2
20260904050950 15 255 1.6 4.8 0.00 0.00 0.00 90 1013.2
20260904050427 15 261 1.6 6.4 0.00 0.00 0.00 91 1013.4
20260904045827 15 201 1.6 6.4 0.00 0.00 0.00 90 1013.2
20260904045325 15 253 3.2 6.4 0.00 0.00 0.00 90 1013.2
20260904044759 15 247 3.2 6.4 0.00 0.00 0.00 91 1013.4
20260904044228 15 220 1.6 3.2 0.00 0.00 0.00 91 1013.1
20260904043701 15 106 1.6 4.8 0.00 0.00 0.00 90 1013.0
20260904043156 15 46 1.6 4.8 0.00 0.00 0.00 90 1013.2
20260904042644 15 64 1.6 4.8 0.00 0.00 0.00 90 1013.1
20260904042411 15 106 1.6 3.2 0.00 0.00 0.00 90 1013.2
20260904041637 15 177 1.6 4.8 0.00 0.00 0.00 90 1013.4
20260904041113 15 167 1.6 4.8 0.00 0.00 0.00 90 1013.3
20260904040542 16 238 3.2 6.4 0.00 0.00 0.00 90 1013.3
20260904040040 15 243 3.2 6.4 0.00 0.00 0.00 90 1013.3
20260904035511 15 81 1.6 6.4 0.00 0.00 0.00 90 1013.1
20260904034946 16 130 1.6 6.4 0.00 0.00 0.00 90 1013.6
20260904034416 16 140 3.2 6.4 0.00 0.00 0.00 90 1013.3
20260904034146 16 161 3.2 6.4 0.00 0.00 0.00 90 1013.2
20260904033403 16 154 3.2 6.4 0.00 0.00 0.00 90 1013.1
20260904032902 16 243 1.6 6.4 0.00 0.00 0.00 90 1013.4
20260904032348 16 247 1.6 6.4 0.00 0.00 0.00 90 1013.4
20260904031851 16 158 1.6 6.4 0.00 0.00 0.00 90 1013.2
20260904031323 16 132 1.6 6.4 0.00 0.00 0.00 90 1013.2
20260904030824 16 285 1.6 6.4 0.00 0.00 0.00 90 1013.3
20260904030305 16 231 1.6 4.8 0.00 0.00 0.00 90 1013.0
20260904025759 16 216 1.6 11.3 0.00 0.00 0.00 90 1013.1
20260904025259 16 160 3.2 11.3 0.00 0.00 0.00 90 1012.9
20260904024757 16 133 3.2 14.5 0.00 0.00 0.00 89 1013.0
20260904024256 16 210 3.2 14.5 0.00 0.00 0.00 89 1012.8
20260904023730 16 106 3.2 11.3 0.00 0.00 0.00 89 1012.7
20260904023227 16 145 3.2 11.3 0.00 0.00 0.00 89 1012.8
20260904022655 16 131 3.2 8.0 0.00 0.00 0.00 89 1012.5
20260904022359 16 145 3.2 11.3 0.00 0.00 0.00 89 1012.5
20260904021625 16 133 4.8 11.3 0.00 0.00 0.00 88 1012.7
20260904021346 16 122 3.2 8.0 0.00 0.00 0.00 88 1012.7
20260904020612 17 139 3.2 8.0 0.00 0.00 0.00 88 1012.8
20260904020109 17 124 6.4 16.1 0.00 0.00 0.00 88 1012.7
20260904015605 17 114 6.4 16.1 0.00 0.00 0.00 87 1012.4
20260904015047 17 112 3.2 8.0 0.00 0.00 0.00 87 1012.2
20260904014752 17 93 3.2 8.0 0.00 0.00 0.00 87 1012.2
20260904014240 18 99 4.8 11.3 0.00 0.00 0.00 86 1012.1
20260904013739 18 149 4.8 14.5 0.00 0.00 0.00 86 1012.0
20260904012942 18 244 4.8 11.3 0.00 0.00 0.00 86 1011.8
20260904012428 18 108 3.2 9.7 0.00 0.00 0.00 87 1011.7
20260904011930 18 228 3.2 6.4 0.00 0.00 0.00 86 1011.9
20260904011403 19 143 3.2 6.4 0.00 0.00 0.00 86 1011.7
20260904010859 19 126 6.4 14.5 0.00 0.00 0.00 86 1011.5
20260904010348 19 116 8.0 14.5 0.00 0.00 0.00 85 1011.4
20260904005839 20 101 4.8 14.5 0.00 0.00 0.00 85 1011.3
20260904005337 20 87 3.2 11.3 0.00 0.00 0.00 86 1011.5
20260904004827 20 72 3.2 11.3 0.00 0.00 0.00 86 1011.6
20260904004328 20 135 3.2 8.0 0.00 0.00 0.00 87 1012.0
20260904003802 20 226 0.0 8.0 0.00 0.00 0.00 88 1012.1
20260904003250 20 236 0.0 0.0 0.00 0.00 0.00 89 1011.7
20260904003025 20 195 0.0 0.0 0.00 0.00 0.00 88 1011.6
20260904002235 20 195 0.0 0.0 0.00 0.00 0.00 88 1011.4
20260904001734 20 195 0.0 0.0 0.00 0.00 0.00 87 1011.5
20260904001228 20 195 0.0 3.2 0.00 0.00 0.00 86 1011.3
20260904000707 20 187 0.0 3.2 0.00 0.00 0.00 86 1011.2
20260904000700 20 195 1.6 3.2 0.00 0.00 0.00 86 1011.3
20260903235653 20 287 0.0 3.2 0.00 0.00 0.00 86 1011.1
20260903235149 20 316 0.0 3.2 0.00 0.00 0.00 85 1011.2
20260903234645 21 316 0.0 1.6 0.00 0.00 0.00 85 1010.9
20260903234143 21 316 0.0 1.6 0.00 0.00 0.00 84 1011.0
20260903233637 21 316 0.0 3.2 0.00 0.00 0.00 84 1010.9
20260903233135 21 316 1.6 3.2 0.00 0.00 0.00 83 1010.8
20260903232839 21 43 1.6 3.2 0.00 0.00 0.00 83 1010.8
20260903232106 21 18 0.0 3.2 0.00 0.00 0.00 82 1010.9
20260903231609 21 264 1.6 6.4 0.00 0.00 0.00 83 1011.0
20260903231323 21 264 1.6 6.4 0.00 0.00 0.00 82 1011.0
20260903230552 21 266 0.0 4.8 0.00 0.00 0.00 82 1011.0
20260903230054 21 235 0.0 0.0 0.00 0.00 0.00 82 1010.8
20260903225527 21 235 0.0 0.0 0.00 0.00 0.00 82 1010.6
20260903225011 22 235 0.0 3.2 0.00 0.00 0.00 79 1010.6
20260903224511 22 235 0.0 3.2 0.00 0.00 0.00 79 1010.3
20260903224009 22 96 0.0 3.2 0.00 0.00 0.00 78 1010.3
20260903223456 22 96 0.0 3.2 0.00 0.00 0.00 78 1010.2
20260903223226 22 275 0.0 3.2 0.00 0.00 0.00 76 1010.2
20260903222452 23 332 0.0 0.0 0.00 0.00 0.00 75 1010.1
20260903221927 23 332 0.0 3.2 0.00 0.00 0.00 73 1009.9
20260903221421 23 332 0.0 3.2 0.00 0.00 0.00 74 1009.8
20260903220917 23 292 0.0 3.2 0.00 0.00 0.00 74 1009.9
20260903220352 23 292 0.0 3.2 0.00 0.00 0.00 72 1009.9
20260903215824 24 292 1.6 3.2 0.00 0.00 0.00 69 1009.8
20260903215317 24 292 1.6 4.8 0.00 0.00 0.00 69 1009.7
20260903215023 24 258 1.6 6.4 0.00 0.00 0.00 67 1009.7
20260903214248 24 243 1.6 6.4 0.00 0.00 0.00 65 1009.6